VA3NNW-13 Weather Reports


Display with metric or nautical units.
time (UTC)temp
F
wind
direction
speed
MPH
gust
MPH
rain 1hr
in
rain 24hr
in
rain mn
in
humidity
%
barometer
mb
20190617170058 72 45 6.0 11.0 0.00 4.81 0.00 57
20190617165858 72 68 5.0 10.0 0.00 4.81 0.00 58
20190617165657 71 158 6.0 10.0 0.00 4.81 0.00 59
20190617165457 71 23 7.0 10.0 0.00 4.81 0.00 59
20190617165258 70 23 7.0 10.0 0.00 4.81 0.00 59
20190617165100 70 113 8.0 10.0 0.00 4.81 0.00 58
20190617164857 70 113 8.0 12.0 0.00 4.81 0.00 58
20190617164658 70 158 8.0 12.0 0.00 4.81 0.00 58
20190617164457 70 135 8.0 13.0 0.00 4.81 0.00 58
20190617164257 70 90 8.0 13.0 0.00 4.81 0.00 57
20190617164058 70 90 7.0 13.0 0.00 4.81 0.00 57
20190617163857 71 90 9.0 13.0 0.00 4.81 0.00 57
20190617163657 70 23 9.0 18.0 0.00 4.81 0.00 57
20190617163458 70 113 9.0 18.0 0.00 4.81 0.00 58
20190617163257 70 113 10.0 18.0 0.00 4.81 0.00 57
20190617163057 71 113 10.0 18.0 0.00 4.81 0.00 57
20190617162858 70 113 10.0 17.0 0.00 4.81 0.00 58
20190617162657 71 135 9.0 17.0 0.00 4.81 0.00 58
20190617162457 71 113 9.0 14.0 0.00 4.81 0.00 57
20190617162257 71 113 8.0 13.0 0.00 4.81 0.00 57
20190617162058 70 203 7.0 13.0 0.00 4.81 0.00 58
20190617161857 71 90 7.0 13.0 0.00 4.81 0.00 58
20190617161657 71 113 7.0 12.0 0.00 4.81 0.00 58
20190617161458 71 23 8.0 15.0 0.00 4.81 0.00 58
20190617161259 70 0 9.0 15.0 0.00 4.81 0.00 59
20190617161058 70 23 10.0 15.0 0.00 4.81 0.00 59
20190617160859 71 90 10.0 15.0 0.00 4.81 0.00 59
20190617160701 71 90 10.0 15.0 0.00 4.81 0.00 59
20190617160501 71 90 9.0 15.0 0.00 4.81 0.00 58
20190617160258 71 113 9.0 15.0 0.00 4.81 0.00 57
20190617160059 71 23 7.0 11.0 0.00 4.81 0.00 59
20190617155857 71 293 8.0 14.0 0.00 4.81 0.00 59
20190617155657 71 23 9.0 15.0 0.00 4.81 0.00 59
20190617155458 71 45 9.0 15.0 0.00 4.81 0.00 60
20190617155258 71 68 9.0 15.0 0.00 4.81 0.00 60
20190617155058 71 293 9.0 15.0 0.00 4.81 0.00 58
20190617154858 71 23 8.0 13.0 0.00 4.81 0.00 59
20190617154657 70 45 8.0 13.0 0.00 4.81 0.00 59
20190617154457 70 68 8.0 13.0 0.00 4.81 0.00 59
20190617154258 70 23 8.0 13.0 0.00 4.81 0.00 59
20190617154058 70 68 8.0 12.0 0.00 4.81 0.00 60
20190617153858 70 90 9.0 13.0 0.00 4.81 0.00 60
20190617153658 71 158 10.0 13.0 0.00 4.81 0.00 58
20190617153457 71 113 9.0 13.0 0.00 4.81 0.00 58
20190617153257 71 113 9.0 13.0 0.00 4.81 0.00 58
20190617153058 71 90 7.0 13.0 0.00 4.81 0.00 58
20190617152858 70 113 6.0 12.0 0.00 4.81 0.00 60
20190617152657 70 90 6.0 16.0 0.00 4.81 0.00 61
20190617152458 70 158 7.0 16.0 0.00 4.81 0.00 62
20190617152258 70 0 9.0 16.0 0.00 4.81 0.00 61
20190617152057 69 90 9.0 16.0 0.00 4.81 0.00 62
20190617151858 69 23 8.0 11.0 0.00 4.81 0.00 61
20190617151658 69 23 8.0 11.0 0.00 4.81 0.00 62
20190617151457 69 315 8.0 14.0 0.00 4.81 0.00 62
20190617151258 69 180 9.0 14.0 0.00 4.81 0.00 63
20190617151058 68 270 10.0 14.0 0.00 4.81 0.00 63
20190617150858 68 23 11.0 15.0 0.00 4.81 0.00 62
20190617150701 68 23 11.0 15.0 0.00 4.81 0.00 62
20190617150501 68 113 11.0 15.0 0.00 4.81 0.00 62
20190617150258 69 68 10.0 15.0 0.00 4.81 0.00 62
20190617150058 68 68 8.0 13.0 0.00 4.81 0.00 63
20190617145859 68 68 8.0 13.0 0.00 4.81 0.00 63
20190617145657 69 113 9.0 13.0 0.00 4.81 0.00 62
20190617145457 68 90 8.0 12.0 0.00 4.81 0.00 64
20190617145257 68 23 9.0 12.0 0.00 4.81 0.00 64
20190617145058 68 23 8.0 12.0 0.00 4.81 0.00 63
20190617144858 68 135 8.0 11.0 0.00 4.81 0.00 64
20190617144658 68 23 8.0 12.0 0.00 4.81 0.00 64
20190617144457 68 23 9.0 15.0 0.00 4.81 0.00 66
20190617144257 68 113 9.0 15.0 0.00 4.81 0.00 66
20190617144057 67 68 10.0 15.0 0.00 4.81 0.00 66
20190617143858 67 113 10.0 15.0 0.00 4.81 0.00 64
20190617143658 67 113 9.0 14.0 0.00 4.81 0.00 66
20190617143457 67 113 9.0 14.0 0.00 4.81 0.00 65
20190617143258 67 158 7.0 13.0 0.00 4.81 0.00 66
20190617143058 67 90 7.0 13.0 0.00 4.81 0.00 66
20190617142858 67 23 7.0 11.0 0.00 4.81 0.00 69
20190617142658 67 90 7.0 11.0 0.00 4.81 0.00 67
20190617142457 67 68 7.0 11.0 0.00 4.81 0.00 68
20190617142258 66 45 7.0 13.0 0.00 4.81 0.00 69
20190617142057 65 113 8.0 13.0 0.00 4.81 0.00 70
20190617141858 65 90 8.0 14.0 0.00 4.81 0.00 71
20190617141658 64 23 8.0 14.0 0.00 4.81 0.00 71
20190617141458 64 113 8.0 14.0 0.00 4.81 0.00 72
20190617141258 64 23 8.0 14.0 0.00 4.81 0.00 72
20190617141058 64 90 8.0 12.0 0.00 4.81 0.00 73
20190617140858 64 68 7.0 12.0 0.00 4.81 0.00 73
20190617140703 64 338 7.0 10.0 0.00 4.81 0.00 74
20190617140505 63 0 7.0 11.0 0.00 4.81 0.00 74
20190617140258 63 45 6.0 11.0 0.00 4.81 0.00 74
20190617140058 63 23 6.0 11.0 0.00 4.81 0.00 74
20190617135858 63 23 6.0 11.0 0.00 4.81 0.00 73
20190617135658 63 113 5.0 9.0 0.00 4.81 0.00 74
20190617135458 63 113 5.0 9.0 0.00 4.81 0.00 74
20190617135258 63 0 6.0 9.0 0.00 4.81 0.00 74
20190617135057 63 45 6.0 10.0 0.00 4.81 0.00 74
20190617134858 63 23 6.0 10.0 0.00 4.81 0.00 74
20190617134658 63 68 6.0 10.0 0.00 4.81 0.00 74
20190617134457 63 338 5.0 10.0 0.00 4.81 0.00 74
20190617134257 63 0 5.0 10.0 0.00 4.81 0.00 74
20190617134058 63 0 5.0 11.0 0.00 4.81 0.00 74
20190617133858 63 23 6.0 11.0 0.00 4.81 0.00 74
20190617133657 62 180 6.0 11.0 0.00 4.81 0.00 74
20190617133457 63 113 7.0 11.0 0.00 4.81 0.00 74
20190617133258 62 90 7.0 10.0 0.00 4.81 0.00 74
20190617133058 62 113 8.0 10.0 0.00 4.81 0.00 74
20190617132857 62 113 7.0 10.0 0.00 4.81 0.00 74
20190617132658 62 135 7.0 10.0 0.00 4.81 0.00 74
20190617132458 62 90 7.0 10.0 0.00 4.81 0.00 74
20190617132258 62 135 7.0 11.0 0.00 4.81 0.00 74
20190617132100 62 158 6.0 11.0 0.00 4.81 0.00 74
20190617131858 62 135 7.0 11.0 0.00 4.81 0.00 74
20190617131658 62 248 7.0 11.0 0.00 4.81 0.00 74
20190617131458 62 68 6.0 10.0 0.00 4.81 0.00 75
20190617131257 62 113 6.0 10.0 0.00 4.81 0.00 75
20190617131058 62 90 7.0 11.0 0.00 4.81 0.00 75
20190617130858 61 158 7.0 12.0 0.00 4.81 0.00 75
20190617130702 61 158 7.0 12.0 0.00 4.81 0.00 75
20190617130505 62 113 8.0 12.0 0.00 4.81 0.00 73
20190617130258 62 45 7.0 12.0 0.00 4.81 0.00 74
20190617130058 62 90 7.0 10.0 0.00 4.81 0.00 75
20190617125858 61 23 8.0 11.0 0.00 4.81 0.00 75
20190617125658 61 68 7.0 11.0 0.00 4.81 0.00 76
20190617125458 61 68 7.0 11.0 0.00 4.81 0.00 76
20190617125258 60 113 7.0 11.0 0.00 4.81 0.00 76
20190617125058 60 23 7.0 9.0 0.00 4.81 0.00 77
20190617124858 60 90 7.0 9.0 0.00 4.81 0.00 77
20190617124658 60 90 7.0 9.0 0.00 4.81 0.00 78
20190617124458 60 68 6.0 9.0 0.00 4.81 0.00 79
20190617124301 60 90 6.0 9.0 0.00 4.81 0.00 79
20190617124106 60 158 7.0 9.0 0.00 4.81 0.00 79
20190617123658 60 90 6.0 9.0 0.00 4.81 0.00 79
20190617123458 60 113 6.0 9.0 0.00 4.81 0.00 79
20190617123257 60 90 6.0 9.0 0.00 4.81 0.00 79
20190617123057 59 113 6.0 9.0 0.00 4.81 0.00 79
20190617122857 59 90 7.0 9.0 0.00 4.81 0.00 79
20190617122658 59 113 6.0 9.0 0.00 4.81 0.00 79
20190617122458 59 90 6.0 9.0 0.00 4.81 0.00 79
20190617122259 59 113 6.0 9.0 0.00 4.81 0.00 79
20190617122057 59 90 6.0 9.0 0.00 4.81 0.00 79
20190617121858 59 23 7.0 9.0 0.00 4.81 0.00 79
20190617121657 59 90 7.0 9.0 0.00 4.81 0.00 79
20190617121457 59 113 7.0 9.0 0.00 4.81 0.00 80
20190617121258 59 158 6.0 9.0 0.00 4.81 0.00 80
20190617121057 59 113 6.0 9.0 0.00 4.81 0.00 80
20190617120857 59 113 6.0 9.0 0.00 4.81 0.00 80
20190617120700 59 158 6.0 9.0 0.00 4.81 0.00 80
20190617120502 59 90 5.0 9.0 0.00 4.81 0.00 80
20190617120258 59 90 4.0 8.0 0.00 4.81 0.00 80
20190617120058 59 90 3.0 5.0 0.00 4.81 0.00 81
20190617115857 59 90 3.0 7.0 0.00 4.81 0.00 81
20190617115659 59 45 4.0 8.0 0.00 4.81 0.00 81
20190617115457 59 68 4.0 9.0 0.00 4.81 0.00 81
20190617115258 59 225 6.0 9.0 0.00 4.81 0.00 81
20190617115059 58 113 6.0 9.0 0.00 4.81 0.00 81
20190617114858 58 113 5.0 9.0 0.00 4.81 0.00 82
20190617114658 58 113 5.0 9.0 0.00 4.81 0.00 82
20190617114458 58 113 5.0 7.0 0.00 4.81 0.00 82
20190617114258 58 68 5.0 8.0 0.00 4.81 0.00 82
20190617114057 58 113 5.0 8.0 0.00 4.81 0.00 82
20190617113858 58 135 5.0 8.0 0.00 4.81 0.00 83
20190617113657 58 90 5.0 8.0 0.00 4.81 0.00 83
20190617113457 58 90 3.0 8.0 0.00 4.81 0.00 83
20190617113258 57 113 3.0 6.0 0.00 4.81 0.00 84
20190617113058 57 158 3.0 6.0 0.00 4.81 0.00 85
20190617112858 57 68 2.0 5.0 0.00 4.81 0.00 85
20190617112658 57 158 3.0 5.0 0.00 4.81 0.00 86
20190617112458 57 90 2.0 5.0 0.00 4.81 0.00 86
20190617112258 57 158 2.0 4.0 0.00 4.81 0.00 86
20190617112058 56 180 2.0 4.0 0.00 4.81 0.00 87
20190617111857 56 158 1.0 4.0 0.00 4.81 0.00 87
20190617111658 56 45 1.0 4.0 0.00 4.81 0.00 87
20190617111458 56 68 1.0 4.0 0.00 4.81 0.00 88
20190617111257 56 90 0.0 0.0 0.00 4.81 0.00 89
20190617111058 55 23 0.0 0.0 0.00 4.81 0.00 89
20190617110858 55 293 0.0 0.0 0.00 4.81 0.00 89
20190617110605 55 338 0.0 0.0 0.00 4.81 0.00 89
20190617110408 55 23 0.0 2.0 0.00 4.81 0.00 89
20190617110200 55 293 0.0 3.0 0.00 4.81 0.00 89
20190617105958 55 113 0.0 3.0 0.00 4.81 0.00 89
20190617105757 55 113 0.0 3.0 0.00 4.81 0.00 90
20190617105556 55 23 0.0 3.0 0.00 4.81 0.00 90
20190617105358 55 23 0.0 3.0 0.00 4.81 0.00 90
20190617105157 55 23 1.0 4.0 0.00 4.81 0.00 90
20190617105000 55 45 2.0 4.0 0.00 4.81 0.00 90
20190617104757 55 45 2.0 4.0 0.00 4.81 0.00 90
20190617104557 55 23 2.0 4.0 0.00 4.81 0.00 90
20190617104357 55 23 2.0 4.0 0.00 4.81 0.00 90
20190617104202 54 23 3.0 4.0 0.00 4.81 0.00 90
20190617103957 54 23 2.0 4.0 0.00 4.81 0.00 91
20190617103758 54 23 2.0 4.0 0.00 4.81 0.00 91
20190617103558 54 23 1.0 4.0 0.00 4.81 0.00 91
20190617103357 54 23 0.0 3.0 0.00 4.81 0.00 92
20190617103158 54 23 0.0 0.0 0.00 4.81 0.00 92
20190617102958 54 0 0.0 0.0 0.00 4.81 0.00 92
20190617102758 54 23 0.0 0.0 0.00 4.81 0.00 92
20190617102557 53 0 0.0 0.0 0.00 4.81 0.00 92
20190617102358 53 23 0.0 0.0 0.00 4.81 0.00 92
20190617102158 53 23 0.0 0.0 0.00 4.81 0.00 92
20190617101957 54 23 0.0 0.0 0.00 4.81 0.00 92
20190617101757 54 270 0.0 0.0 0.00 4.81 0.00 92
20190617101556 54 270 0.0 0.0 0.00 4.81 0.00 92
20190617101357 54 270 0.0 0.0 0.00 4.81 0.00 92
20190617101157 54 293 0.0 0.0 0.00 4.81 0.00 92
20190617100958 54 293 0.0 0.0 0.00 4.81 0.00 92
20190617100759 54 270 0.0 0.0 0.00 4.81 0.00 92
20190617100602 54 338 0.0 0.0 0.00 4.81 0.00 92
20190617100402 54 293 0.0 0.0 0.00 4.81 0.00 92
20190617100158 54 338 0.0 0.0 0.00 4.81 0.00 92
20190617095958 54 293 0.0 0.0 0.00 4.81 0.00 92
20190617095757 54 270 0.0 0.0 0.00 4.81 0.00 92
20190617095557 54 270 0.0 0.0 0.00 4.81 0.00 92
20190617095357 54 225 0.0 0.0 0.00 4.81 0.00 92
20190617095158 54 180 0.0 0.0 0.00 4.81 0.00 92
20190617094959 54 315 0.0 0.0 0.00 4.81 0.00 92
20190617094758 54 23 0.0 0.0 0.00 4.81 0.00 92
20190617094558 54 135 0.0 0.0 0.00 4.81 0.00 92
20190617094358 54 23 0.0 0.0 0.00 4.81 0.00 93
20190617094158 54 23 0.0 0.0 0.00 4.81 0.00 93
20190617093958 54 338 0.0 0.0 0.00 4.81 0.00 93
20190617093757 54 338 0.0 0.0 0.00 4.81 0.00 93
20190617093557 54 315 0.0 0.0 0.00 4.81 0.00 93
20190617093358 54 293 0.0 0.0 0.00 4.81 0.00 93
20190617093158 54 270 0.0 0.0 0.00 4.81 0.00 93
20190617092958 54 270 0.0 0.0 0.00 4.81 0.00 93
20190617092758 54 270 0.0 0.0 0.00 4.81 0.00 93
20190617092557 54 270 0.0 0.0 0.00 4.81 0.00 93
20190617092357 54 270 0.0 0.0 0.00 4.81 0.00 93
20190617092159 54 248 0.0 0.0 0.00 4.81 0.00 93
20190617091958 54 270 0.0 0.0 0.00 4.81 0.00 93
20190617091758 54 338 0.0 0.0 0.00 4.81 0.00 93
20190617091557 54 338 0.0 0.0 0.00 4.81 0.00 93
20190617091357 54 23 0.0 0.0 0.00 4.81 0.00 93
20190617091159 54 270 0.0 0.0 0.00 4.81 0.00 93
20190617090958 54 23 0.0 0.0 0.00 4.81 0.00 93
20190617090758 54 23 0.0 0.0 0.00 4.81 0.00 93
20190617090559 54 23 0.0 0.0 0.00 4.81 0.00 93
20190617090403 54 45 0.0 2.0 0.00 4.81 0.00 93
20190617090158 54 45 0.0 2.0 0.00 4.81 0.00 93
20190617085957 54 315 0.0 2.0 0.00 4.81 0.00 93
20190617085757 54 45 1.0 4.0 0.00 4.81 0.00 93
20190617085557 54 0 1.0 4.0 0.00 4.81 0.00 93
20190617085357 54 23 1.0 4.0 0.00 4.81 0.00 93
20190617085158 54 338 1.0 4.0 0.00 4.81 0.00 93
20190617084958 54 338 1.0 4.0 0.00 4.81 0.00 93
20190617084757 53 293 1.0 4.0 0.00 4.81 0.00 93
20190617084558 53 45 1.0 4.0 0.00 4.81 0.00 93
20190617084358 53 0 1.0 4.0 0.00 4.81 0.00 93
20190617084157 53 0 1.0 4.0 0.00 4.81 0.00 94
20190617083958 53 23 1.0 4.0 0.00 4.81 0.00 94
20190617083758 53 293 1.0 4.0 0.00 4.81 0.00 94
20190617083557 53 338 1.0 4.0 0.00 4.81 0.00 94
20190617083400 53 0 1.0 4.0 0.00 4.81 0.00 94
20190617083158 53 0 0.0 0.0 0.00 4.81 0.00 94
20190617082957 53 315 0.0 0.0 0.00 4.81 0.00 94
20190617082758 53 293 0.0 0.0 0.00 4.81 0.00 94
20190617082558 53 315 0.0 0.0 0.00 4.81 0.00 94
20190617082357 53 23 0.0 0.0 0.00 4.81 0.00 94
20190617082159 53 293 0.0 2.0 0.00 4.81 0.00 94
20190617081958 53 338 0.0 2.0 0.00 4.81 0.00 94
20190617081757 53 23 0.0 2.0 0.00 4.81 0.00 94
20190617081557 53 23 0.0 2.0 0.00 4.81 0.00 94
20190617081357 53 0 0.0 2.0 0.00 4.81 0.00 94
20190617081157 53 0 0.0 0.0 0.00 4.81 0.00 94
20190617080958 53 0 0.0 0.0 0.00 4.81 0.00 94
20190617080757 53 23 0.0 0.0 0.00 4.81 0.00 94
20190617080601 53 338 0.0 0.0 0.00 4.81 0.00 93
20190617080402 53 338 0.0 0.0 0.00 4.81 0.00 93
20190617080157 53 338 0.0 0.0 0.00 4.81 0.00 93
20190617075958 54 315 0.0 0.0 0.00 4.81 0.00 93
20190617075758 54 270 0.0 0.0 0.00 4.81 0.00 93
20190617075557 54 270 0.0 0.0 0.00 4.81 0.00 94
20190617075358 54 225 0.0 0.0 0.00 4.81 0.00 94
20190617075158 54 225 0.0 0.0 0.00 4.81 0.00 94
20190617074957 53 225 0.0 0.0 0.00 4.81 0.00 94
20190617074757 53 270 0.0 0.0 0.00 4.81 0.00 94
20190617074558 53 270 0.0 0.0 0.00 4.81 0.00 94
20190617074358 53 270 0.0 0.0 0.00 4.81 0.00 94
20190617074158 53 270 0.0 0.0 0.00 4.81 0.00 94
20190617073958 53 203 0.0 0.0 0.00 4.81 0.00 94
20190617073758 53 270 0.0 0.0 0.00 4.81 0.00 94
20190617073558 53 293 0.0 0.0 0.00 4.81 0.00 94
20190617073358 53 270 0.0 0.0 0.00 4.81 0.00 94
20190617073158 54 270 0.0 3.0 0.00 4.81 0.00 94
20190617072958 54 270 0.0 3.0 0.00 4.81 0.00 94
20190617072757 54 315 0.0 3.0 0.00 4.81 0.00 94
20190617072557 54 315 0.0 2.0 0.00 4.81 0.00 94
20190617072358 54 315 0.0 0.0 0.00 4.81 0.00 94
20190617072158 54 0 0.0 2.0 0.00 4.81 0.00 94
20190617071958 54 338 0.0 2.0 0.00 4.81 0.00 94
20190617071757 54 23 1.0 5.0 0.00 4.81 0.00 94
20190617071558 54 23 1.0 5.0 0.00 4.81 0.00 94
20190617071358 54 338 2.0 5.0 0.00 4.81 0.00 94
20190617071158 54 113 3.0 5.0 0.00 4.81 0.00 94
20190617070958 54 23 3.0 7.0 0.00 4.81 0.00 94
20190617070757 54 338 4.0 7.0 0.00 4.81 0.00 94
20190617070600 54 0 4.0 7.0 0.00 4.81 0.00 94
20190617070403 54 23 4.0 7.0 0.00 4.81 0.00 94
20190617070157 54 0 4.0 4.0 0.00 4.81 0.00 94
20190617065958 54 23 4.0 6.0 0.00 4.81 0.00 94